Change the Weather History Date:

Wednesday, January 1, 2014

  Actual Average Record
Temperature  
Mean Temperature 11 °F -  
Max Temperature 14 °F 30 °F 51 °F (1950)
Min Temperature 8 °F 13 °F -12 °F (1979)
Degree Days  
Heating Degree Days 54    
Moisture  
Dew Point 7 °F    
Average Humidity 84    
Maximum Humidity 92    
Minimum Humidity 79    
Precipitation  
Precipitation 0.00 in - - ()
Sea Level Pressure  
Sea Level Pressure 30.19 in    
Wind  
Wind Speed 11 mph (NNE)    
Max Wind Speed 17 mph    
Max Gust Speed 22 mph    
Visibility 7 miles    
Events Rain , Snow    
Averages and records for this station are not official NWS values.
T = Trace of Precipitation, MM = Missing Value Source: NWS Daily Summary

Daily Weather History Graph

Daily Weather History Graph

Search for Another Location

Airport or City:

Trip Planner

Search our weather history database for the weather conditions in past years. The results will help you decide how hot, cold, wet, or windy it might be!

Date:

Astronomy

Jan. 01, 2014 Rise Set
Actual Time 7:35 AM CST 4:55 PM CST
Civil Twilight 7:04 AM CST 5:25 PM CST
Nautical Twilight 6:30 AM CST 6:00 PM CST
Astronomical Twilight 5:57 AM CST 6:33 PM CST
Moon 7:26 AM CST (1/1) 5:41 PM CST (1/1)
Length of Visible Light 10h 21m
Length of Day
9h 19m
New Moon, 0% of the Moon is Illuminated
Jan 1
New Moon
Jan 7
First Quarter
Jan 15
Full
Jan 23
Last Quarter
Jan 30
New

Hourly Weather History & Observations

Time (CST) Temp. Windchill Dew Point Humidity Pressure Visibility Wind Dir Wind Speed Gust Speed Precip Events Conditions
12:15 AM 14.0 °F 1.2 °F 10.4 °F 86% 30.15 in 10.0 mi ENE 10.4 mph - N/A   Clear
12:35 AM 14.0 °F 1.2 °F 10.4 °F 86% 30.15 in 10.0 mi NE 10.4 mph - N/A   Clear
12:55 AM 14.0 °F 1.2 °F 10.4 °F 86% 30.15 in 10.0 mi NE 10.4 mph - N/A   Clear
1:15 AM 14.0 °F 1.2 °F 8.6 °F 79% 30.14 in 10.0 mi NE 10.4 mph - N/A   Clear
1:35 AM 14.0 °F 2.9 °F 8.6 °F 79% 30.14 in 10.0 mi NE 8.1 mph - N/A   Clear
1:55 AM 14.0 °F 1.2 °F 8.6 °F 79% 30.14 in 10.0 mi NE 10.4 mph - N/A   Clear
2:15 AM 14.0 °F 2.0 °F 8.6 °F 79% 30.15 in 10.0 mi NE 9.2 mph - N/A   Clear
2:35 AM 12.2 °F 0.7 °F 8.6 °F 85% 30.15 in 10.0 mi NE 8.1 mph - N/A   Clear
2:55 AM 12.2 °F 0.7 °F 8.6 °F 85% 30.15 in 10.0 mi NE 8.1 mph - N/A   Scattered Clouds
3:15 AM 12.2 °F -0.2 °F 8.6 °F 85% 30.14 in 10.0 mi NE 9.2 mph - N/A Snow Light Snow
3:35 AM 10.4 °F -2.4 °F 8.6 °F 92% 30.13 in 10.0 mi NE 9.2 mph - N/A   Mostly Cloudy
3:55 AM 10.4 °F -2.4 °F 8.6 °F 92% 30.14 in 10.0 mi NE 9.2 mph 16.1 mph N/A Snow Light Snow
4:15 AM 10.4 °F -3.3 °F 8.6 °F 92% 30.13 in 10.0 mi NE 10.4 mph 16.1 mph N/A Snow Light Snow
4:35 AM 10.4 °F -4.1 °F 8.6 °F 92% 30.14 in 10.0 mi NE 11.5 mph - N/A Snow Light Snow
4:55 AM 10.4 °F -3.3 °F 8.6 °F 92% 30.14 in 10.0 mi NE 10.4 mph 16.1 mph N/A   Overcast
5:15 AM 10.4 °F -3.3 °F 8.6 °F 92% 30.14 in 10.0 mi NE 10.4 mph - N/A   Overcast
5:35 AM 10.4 °F -4.1 °F 8.6 °F 92% 30.14 in 10.0 mi NE 11.5 mph - N/A Snow Light Snow
5:55 AM 10.4 °F -4.8 °F 6.8 °F 85% 30.15 in 10.0 mi NE 12.7 mph - N/A   Overcast
6:15 AM 10.4 °F -2.4 °F 6.8 °F 85% 30.17 in 10.0 mi NE 9.2 mph - N/A   Overcast
6:35 AM 10.4 °F -2.4 °F 6.8 °F 85% 30.17 in 10.0 mi NNE 9.2 mph - N/A Snow Light Snow
6:55 AM 10.4 °F -3.3 °F 6.8 °F 85% 30.17 in 10.0 mi NNE 10.4 mph - N/A Snow Light Snow
7:15 AM 10.4 °F -4.1 °F 6.8 °F 85% 30.17 in 10.0 mi NE 11.5 mph 16.1 mph N/A Snow Light Snow
7:35 AM 10.4 °F -4.1 °F 6.8 °F 85% 30.18 in 10.0 mi NNE 11.5 mph - N/A Rain Light Freezing Rain
7:55 AM 10.4 °F -6.0 °F 6.8 °F 85% 30.18 in 10.0 mi NE 15.0 mph 18.4 mph N/A Snow Light Snow
8:15 AM 10.4 °F -3.3 °F 6.8 °F 85% 30.17 in 10.0 mi NE 10.4 mph - N/A Rain Light Freezing Rain
8:35 AM 12.2 °F -1.8 °F 8.6 °F 85% 30.18 in 10.0 mi NE 11.5 mph 17.3 mph N/A Rain Light Freezing Rain
8:55 AM 12.2 °F -2.5 °F 8.6 °F 85% 30.20 in 10.0 mi NNE 12.7 mph - N/A Snow Light Snow
9:15 AM 12.2 °F -0.2 °F 8.6 °F 85% 30.20 in 10.0 mi NE 9.2 mph - N/A Snow Light Snow
9:35 AM 12.2 °F -2.5 °F 8.6 °F 85% 30.21 in 10.0 mi NE 12.7 mph - N/A Snow Light Snow
9:55 AM 12.2 °F -1.0 °F 8.6 °F 85% 30.20 in 10.0 mi NNE 10.4 mph - N/A Snow Light Snow
10:15 AM 12.2 °F -1.8 °F 8.6 °F 85% 30.20 in 10.0 mi NE 11.5 mph - N/A Snow Light Snow
10:35 AM 14.0 °F 1.2 °F 8.6 °F 79% 30.21 in 10.0 mi NNE 10.4 mph - N/A Snow Light Snow
10:55 AM 14.0 °F 2.9 °F 8.6 °F 79% 30.20 in 10.0 mi NNE 8.1 mph - N/A Snow Light Snow
11:15 AM 14.0 °F -0.2 °F 8.6 °F 79% 30.20 in 2.5 mi NNE 12.7 mph 18.4 mph N/A Snow Light Snow
11:35 AM 14.0 °F 1.2 °F 8.6 °F 79% 30.19 in 1.5 mi NNE 10.4 mph - N/A Snow Light Snow
11:55 AM 14.0 °F 1.2 °F 8.6 °F 79% 30.19 in 1.2 mi NNE 10.4 mph - N/A Snow Light Snow
12:15 PM 14.0 °F -0.2 °F 8.6 °F 79% 30.19 in 1.8 mi NNE 12.7 mph - N/A Snow Light Snow
12:35 PM 12.2 °F -0.2 °F 8.6 °F 85% 30.18 in 1.8 mi NNE 9.2 mph - N/A Snow Light Snow
12:55 PM 12.2 °F -1.0 °F 8.6 °F 85% 30.17 in 0.8 mi NNE 10.4 mph - N/A Snow Light Snow
1:15 PM 12.2 °F -3.1 °F 8.6 °F 85% 30.16 in 0.5 mi NNE 13.8 mph - N/A Snow Snow
1:35 PM 12.2 °F -3.7 °F 8.6 °F 85% 30.15 in 0.5 mi North 15.0 mph 19.6 mph N/A Snow Snow
1:55 PM 12.2 °F -1.8 °F 8.6 °F 85% 30.16 in 0.8 mi North 11.5 mph - N/A Snow Light Snow
2:15 PM 10.4 °F -5.4 °F 6.8 °F 85% 30.16 in 1.0 mi North 13.8 mph - N/A Snow Light Snow
2:35 PM 10.4 °F -4.8 °F 6.8 °F 85% 30.17 in 0.8 mi North 12.7 mph - N/A Snow Light Snow
2:55 PM 10.4 °F -4.8 °F 6.8 °F 85% 30.17 in 0.5 mi North 12.7 mph - N/A Snow Snow
3:15 PM 10.4 °F -4.1 °F 6.8 °F 85% 30.17 in 0.8 mi NNE 11.5 mph - N/A Snow Light Snow
3:35 PM 10.4 °F -4.8 °F 6.8 °F 85% 30.18 in 1.0 mi North 12.7 mph 16.1 mph N/A Snow Light Snow
3:55 PM 10.4 °F -3.3 °F 6.8 °F 85% 30.18 in 1.2 mi North 10.4 mph - N/A Snow Light Snow
4:15 PM 10.4 °F -5.4 °F 6.8 °F 85% 30.19 in 2.0 mi North 13.8 mph - N/A Snow Light Snow
4:35 PM 10.4 °F -6.0 °F 6.8 °F 85% 30.19 in 1.8 mi North 15.0 mph 19.6 mph N/A Snow Light Snow
4:55 PM 10.4 °F -4.8 °F 6.8 °F 85% 30.20 in 1.8 mi North 12.7 mph 19.6 mph N/A Snow Light Snow
5:15 PM 10.4 °F -6.0 °F 6.8 °F 85% 30.20 in 2.5 mi North 15.0 mph - N/A Snow Light Snow
5:35 PM 10.4 °F -5.4 °F 6.8 °F 85% 30.21 in 1.2 mi North 13.8 mph - N/A Snow Light Snow
5:55 PM 10.4 °F -4.8 °F 6.8 °F 85% 30.22 in 1.8 mi North 12.7 mph - N/A Snow Light Snow
6:15 PM 10.4 °F -5.4 °F 6.8 °F 85% 30.23 in 5.0 mi North 13.8 mph 19.6 mph N/A Snow Light Snow
6:35 PM 10.4 °F -7.2 °F 6.8 °F 85% 30.23 in 6.0 mi North 17.3 mph 20.7 mph N/A Snow Light Snow
6:55 PM 10.4 °F -6.0 °F 6.8 °F 85% 30.24 in 10.0 mi North 15.0 mph 21.9 mph N/A Rain Light Freezing Rain
7:15 PM 10.4 °F -6.6 °F 6.8 °F 85% 30.24 in 10.0 mi North 16.1 mph - N/A Rain Light Freezing Rain
7:35 PM 10.4 °F -7.2 °F 5.0 °F 79% 30.25 in 10.0 mi North 17.3 mph 20.7 mph N/A   Overcast
7:55 PM 8.6 °F -7.7 °F 5.0 °F 85% 30.26 in 10.0 mi North 13.8 mph 21.9 mph N/A   Overcast
8:15 PM 8.6 °F -8.9 °F 5.0 °F 85% 30.26 in 10.0 mi North 16.1 mph 20.7 mph N/A   Overcast
8:35 PM 8.6 °F -7.7 °F 5.0 °F 85% 30.27 in 10.0 mi North 13.8 mph - N/A   Overcast
8:55 PM 8.6 °F -8.3 °F 5.0 °F 85% 30.27 in 10.0 mi North 15.0 mph 21.9 mph N/A   Mostly Cloudy
9:15 PM 8.6 °F -8.9 °F 3.2 °F 79% 30.28 in 10.0 mi North 16.1 mph 21.9 mph N/A   Mostly Cloudy
9:35 PM 8.6 °F -9.5 °F 3.2 °F 79% 30.28 in 10.0 mi North 17.3 mph - N/A   Overcast
9:55 PM 8.6 °F -6.3 °F 3.2 °F 79% 30.28 in 10.0 mi NNW 11.5 mph - N/A   Overcast
10:15 PM 8.6 °F -8.3 °F 3.2 °F 79% 30.28 in 10.0 mi NNW 15.0 mph - N/A   Mostly Cloudy
10:35 PM 8.6 °F -8.3 °F 3.2 °F 79% 30.28 in 10.0 mi NNW 15.0 mph - N/A   Overcast
10:55 PM 8.6 °F -9.5 °F 5.0 °F 85% 30.28 in 10.0 mi NNW 17.3 mph - N/A   Overcast
11:15 PM 8.6 °F -7.0 °F 5.0 °F 85% 30.28 in 10.0 mi NNW 12.7 mph 18.4 mph N/A   Mostly Cloudy
11:35 PM 8.6 °F -7.0 °F 5.0 °F 85% 30.28 in 10.0 mi NNW 12.7 mph 18.4 mph N/A Snow Light Snow
11:55 PM 8.6 °F -7.0 °F 3.2 °F 79% 30.28 in 10.0 mi NNW 12.7 mph - N/A Snow Light Snow